When you browse on this site, cookies collect data to enhance your experience and personalize the content and advertising you see.
Visit our Privacy Policy to learn more. By continuing to use the site, you agree to this use of cookies and data.
  • In Czech Republic
  • List of Countries
  • For 7 days
  • Water Temperature
  • Weather Map
  • Weather Widgets
  • user-avatar
    Login

    Hourly Weather La Baule-Escoublac

    Today, 3 June, Wednesday

    Time Temperature Precipitation Wind Pressure Humidity
    00:00 +14°C° 0 mm 5 mps 758 mmHg 72%
    01:00 +13°C° 0 mm 4 mps 758 mmHg 74%
    02:00 +13°C° 0 mm 4 mps 757 mmHg 76%
    03:00 +12°C° 0 mm 4 mps 757 mmHg 78%
    04:00 +12°C° 0 mm 4 mps 757 mmHg 79%
    05:00 +13°C° 0 mm 3 mps 756 mmHg 79%
    06:00 +13°C° 0 mm 3 mps 756 mmHg 80%
    07:00 +16°C° 0 mm 3 mps 756 mmHg 74%
    08:00 +18°C° 0 mm 3 mps 755 mmHg 68%
    09:00 +20°C° 0 mm 2 mps 755 mmHg 62%
    10:00 +21°C° 0 mm 3 mps 754 mmHg 59%
    11:00 +22°C° 0 mm 3 mps 754 mmHg 56%
    12:00 +22°C° 0 mm 4 mps 754 mmHg 53%
    13:00 +22°C° 0.2 mm 5 mps 753 mmHg 58%
    14:00 +22°C° 0.2 mm 5 mps 753 mmHg 62%
    15:00 +21°C° 0.2 mm 6 mps 752 mmHg 67%
    16:00 +21°C° 0.4 mm 6 mps 752 mmHg 69%
    17:00 +20°C° 0.4 mm 6 mps 751 mmHg 72%
    18:00 +20°C° 0.4 mm 6 mps 751 mmHg 74%
    19:00 +17°C° 0.3 mm 5 mps 751 mmHg 78%
    20:00 +16°C° 0.3 mm 5 mps 751 mmHg 82%
    21:00 +14°C° 0.3 mm 5 mps 751 mmHg 86%
    22:00 +14°C° 0.4 mm 5 mps 751 mmHg 88%
    23:00 +13°C° 0.4 mm 5 mps 751 mmHg 90%

    Tomorrow, 4 June, Thursday

    Time Temperature Precipitation Wind Pressure Humidity
    00:00 +13°C° 0.4 mm 5 mps 751 mmHg 92%
    01:00 +12°C° 0.1 mm 5 mps 751 mmHg 92%
    02:00 +11°C° 0.1 mm 6 mps 750 mmHg 92%
    03:00 +10°C° 0.1 mm 7 mps 750 mmHg 93%
    04:00 +11°C° 0 mm 7 mps 750 mmHg 92%
    05:00 +11°C° 0 mm 7 mps 750 mmHg 91%
    06:00 +11°C° 0 mm 7 mps 750 mmHg 90%
    07:00 +12°C° 0 mm 7 mps 751 mmHg 87%
    08:00 +12°C° 0 mm 7 mps 751 mmHg 84%
    09:00 +14°C° 0 mm 7 mps 752 mmHg 82%
    10:00 +15°C° 0.1 mm 7 mps 752 mmHg 77%
    11:00 +16°C° 0.1 mm 7 mps 752 mmHg 72%
    12:00 +17°C° 0.1 mm 7 mps 752 mmHg 67%
    13:00 +17°C° 0 mm 7 mps 752 mmHg 62%
    14:00 +17°C° 0 mm 8 mps 753 mmHg 58%
    15:00 +17°C° 0 mm 8 mps 753 mmHg 54%
    16:00 +17°C° 0 mm 7 mps 753 mmHg 56%
    17:00 +16°C° 0 mm 7 mps 753 mmHg 58%
    18:00 +15°C° 0 mm 7 mps 753 mmHg 60%
    19:00 +14°C° 0 mm 6 mps 754 mmHg 65%
    20:00 +13°C° 0 mm 6 mps 754 mmHg 69%
    21:00 +11°C° 0 mm 6 mps 755 mmHg 74%
    22:00 +10°C° 0 mm 6 mps 755 mmHg 77%
    23:00 +10°C° 0 mm 5 mps 755 mmHg 79%

    Day after tomorrow, 5 June, Friday

    Time Temperature Precipitation Wind Pressure Humidity
    00:00 +9°C° 0 mm 5 mps 755 mmHg 81%
    01:00 +10°C° 0 mm 6 mps 755 mmHg 80%
    02:00 +11°C° 0 mm 6 mps 755 mmHg 78%
    03:00 +12°C° 0 mm 7 mps 754 mmHg 77%
    04:00 +14°C° 0.1 mm 7 mps 754 mmHg 79%
    05:00 +13°C° 0.1 mm 8 mps 754 mmHg 81%
    06:00 +15°C° 0.1 mm 9 mps 754 mmHg 84%
    07:00 +15°C° 0.2 mm 9 mps 754 mmHg 82%
    08:00 +16°C° 0.2 mm 9 mps 753 mmHg 80%
    09:00 +16°C° 0.2 mm 9 mps 753 mmHg 79%
    10:00 +17°C° 0.1 mm 9 mps 753 mmHg 76%
    11:00 +17°C° 0.1 mm 10 mps 753 mmHg 73%
    12:00 +18°C° 0.1 mm 10 mps 753 mmHg 70%
    13:00 +18°C° 0.1 mm 10 mps 753 mmHg 71%
    14:00 +18°C° 0.1 mm 10 mps 753 mmHg 71%
    15:00 +17°C° 0.1 mm 10 mps 753 mmHg 71%
    16:00 +17°C° 0.1 mm 10 mps 753 mmHg 72%
    17:00 +17°C° 0.1 mm 10 mps 753 mmHg 73%
    18:00 +17°C° 0.1 mm 10 mps 753 mmHg 74%
    19:00 +16°C° 0.1 mm 9 mps 753 mmHg 76%
    20:00 +16°C° 0.1 mm 9 mps 754 mmHg 78%
    21:00 +16°C° 0.1 mm 8 mps 754 mmHg 79%
    22:00 +15°C° 0.2 mm 8 mps 754 mmHg 81%
    23:00 +15°C° 0.2 mm 8 mps 754 mmHg 82%

    6 June, Saturday

    Time Temperature Precipitation Wind Pressure Humidity
    00:00 +15°C° 0.2 mm 7 mps 754 mmHg 83%
    01:00 +15°C° 0.1 mm 7 mps 754 mmHg 83%
    02:00 +14°C° 0.1 mm 7 mps 754 mmHg 82%
    03:00 +14°C° 0.1 mm 6 mps 753 mmHg 81%
    04:00 +14°C° 0.1 mm 6 mps 754 mmHg 80%
    05:00 +14°C° 0.1 mm 6 mps 754 mmHg 78%
    06:00 +14°C° 0.1 mm 6 mps 754 mmHg 77%
    07:00 +15°C° 0 mm 6 mps 754 mmHg 72%
    08:00 +15°C° 0 mm 6 mps 754 mmHg 67%
    09:00 +16°C° 0 mm 5 mps 755 mmHg 62%
    10:00 +17°C° 0 mm 5 mps 755 mmHg 60%
    11:00 +17°C° 0 mm 5 mps 755 mmHg 57%
    12:00 +17°C° 0 mm 5 mps 755 mmHg 55%
    13:00 +17°C° 0 mm 6 mps 755 mmHg 55%
    14:00 +17°C° 0 mm 6 mps 755 mmHg 54%
    15:00 +17°C° 0 mm 6 mps 755 mmHg 54%
    16:00 +16°C° 0 mm 6 mps 755 mmHg 55%
    17:00 +16°C° 0 mm 6 mps 755 mmHg 57%
    18:00 +15°C° 0 mm 6 mps 756 mmHg 58%
    19:00 +14°C° 0 mm 6 mps 756 mmHg 60%
    20:00 +13°C° 0 mm 5 mps 757 mmHg 63%
    21:00 +12°C° 0 mm 5 mps 757 mmHg 65%
    22:00 +9°C° 0 mm 5 mps 757 mmHg 69%
    23:00 +8°C° 0 mm 5 mps 757 mmHg 74%

    7 June, Sunday

    Time Temperature Precipitation Wind Pressure Humidity
    00:00 +7°C° 0 mm 4 mps 757 mmHg 78%
    01:00 +7°C° 0 mm 4 mps 757 mmHg 77%
    02:00 +7°C° 0 mm 4 mps 757 mmHg 76%
    03:00 +7°C° 0 mm 4 mps 757 mmHg 75%
    04:00 +8°C° 0 mm 4 mps 758 mmHg 74%
    05:00 +10°C° 0 mm 4 mps 758 mmHg 72%
    06:00 +11°C° 0 mm 4 mps 758 mmHg 70%
    07:00 +12°C° 0.2 mm 4 mps 758 mmHg 66%
    08:00 +13°C° 0.2 mm 4 mps 759 mmHg 63%
    09:00 +14°C° 0.2 mm 5 mps 759 mmHg 59%
    10:00 +15°C° 0.1 mm 5 mps 759 mmHg 60%
    11:00 +15°C° 0.1 mm 6 mps 759 mmHg 60%
    12:00 +15°C° 0.1 mm 7 mps 759 mmHg 60%
    13:00 +16°C° 0 mm 7 mps 759 mmHg 59%
    14:00 +16°C° 0 mm 8 mps 759 mmHg 59%
    15:00 +16°C° 0 mm 8 mps 759 mmHg 58%
    16:00 +16°C° 0 mm 8 mps 759 mmHg 61%
    17:00 +16°C° 0 mm 7 mps 759 mmHg 64%
    18:00 +15°C° 0 mm 7 mps 759 mmHg 67%
    19:00 +14°C° 0 mm 6 mps 759 mmHg 72%
    20:00 +13°C° 0 mm 6 mps 760 mmHg 77%
    21:00 +11°C° 0 mm 6 mps 760 mmHg 82%
    22:00 +11°C° 0 mm 6 mps 760 mmHg 84%
    23:00 +10°C° 0 mm 5 mps 760 mmHg 85%

    8 June, Monday

    Time Temperature Precipitation Wind Pressure Humidity
    00:00 +10°C° 0 mm 5 mps 760 mmHg 87%
    01:00 +10°C° 0.1 mm 5 mps 760 mmHg 88%
    02:00 +10°C° 0.1 mm 5 mps 760 mmHg 89%
    03:00 +10°C° 0.1 mm 5 mps 760 mmHg 90%
    04:00 +11°C° 0.1 mm 4 mps 760 mmHg 89%
    05:00 +12°C° 0.1 mm 4 mps 760 mmHg 87%
    06:00 +13°C° 0.1 mm 4 mps 760 mmHg 85%
    07:00 +14°C° 0 mm 4 mps 760 mmHg 79%
    08:00 +17°C° 0 mm 4 mps 760 mmHg 72%
    09:00 +18°C° 0 mm 4 mps 761 mmHg 66%
    10:00 +19°C° 0.1 mm 4 mps 761 mmHg 64%
    11:00 +19°C° 0.1 mm 5 mps 761 mmHg 62%
    12:00 +20°C° 0.1 mm 5 mps 761 mmHg 60%
    13:00 +20°C° 0.1 mm 6 mps 761 mmHg 61%
    14:00 +20°C° 0.1 mm 6 mps 760 mmHg 61%
    15:00 +20°C° 0.1 mm 7 mps 760 mmHg 62%
    16:00 +18°C° 0 mm 7 mps 760 mmHg 64%
    17:00 +18°C° 0 mm 7 mps 761 mmHg 67%
    18:00 +18°C° 0 mm 7 mps 761 mmHg 69%
    19:00 +16°C° 0 mm 7 mps 761 mmHg 74%
    20:00 +15°C° 0 mm 6 mps 761 mmHg 79%
    21:00 +14°C° 0 mm 5 mps 762 mmHg 84%
    22:00 +13°C° 0 mm 5 mps 762 mmHg 84%
    23:00 +13°C° 0 mm 4 mps 762 mmHg 84%
    Show more